Location: ??????
(56.0120°N, 39.1740°E)
Time: 18:07:36
(UTC+00:00)

Meteor 2-21 - Pass Details

Date: 14 April 2026
Orbit: 934 x 965 km, 82.5° (Epoch: 16 May)

Event Time Altitude Azimuth Distance (km) Brightness Sun altitude
Rises 17:53:34 0° 347° (NNW) 3,624 8.3 -11.4°
Reaches altitude 10° 17:56:04 10° 348° (NNW) 2,680 7.6 -11.7°
Maximum altitude 18:02:13 84° 76° (ENE) 964 4.4 -12.3°
Drops below altitude 10° 18:08:23 10° 167° (SSE) 2,684 6.3 -13.0°
Enters shadow 18:08:24 10° 167° (SSE) 2,688 6.3 -13.0°
